AMAZONAS 5 (42934 NORAD) Tracking and Keplerian Element Data

This shows tracking and keplerian element data for the satellite.

Feedback or suggestion? Click here.




ElementValue
Catalog42934
NameAMAZONAS 5
Epoch Orbit458
Epoch Day342.9536628
Epoch Year2018
RAAN321.5284
Inclination0.0296
Eccentricity0.0003637
Argument of Perigee319.3892
Mean Anonmoly79.0533
Mean Motion1.00275646
Decay Rate-2.79E-06
L11 42934U 17053A 18342.95366280 -.00000279 00000-0 00000+0 0 9993
L22 42934 0.0296 321.5284 0003637 319.3892 79.0533 1.00275646 4585

Live tracking and technical data element details for AMAZONAS 5 (NORAD 42934). AMAZONAS 5 can be tracked NOW for your location showing map with azimuth and elevation plus other details from your city location.

Track the satellite on the map from your city or location and see movement details for azimuth, elevation, latitude, longitude, range, height, and movement on the map or in text.







IsCatalogInMostPopularTable: catalog: 42934, numindb: 153
Update: records affected: 1



GetName: 42934 AMAZONAS 5

Hit Count: updated at: Tue, 11 Dec 2018 02:08:13 GMT